Location: Caltech
(34.1382°N, 118.1253°W)
Time: 14:16:03
(UTC-07:00)

ERBS - Visible Passes

Search period start: 02 September 2014 00:00
Search period end: 12 September 2014 00:00
Orbit: 467 x 489 km, 57.0° (Epoch: 02 September)

Date Brightness Start Highest point End Pass type
(mag) Time Alt. Az. Time Alt. Az. Time Alt. Az.
03 Sep 5.5 21:30:15 10° N 21:30:17 10° N 21:30:17 10° N visible
04 Sep 5.2 21:02:30 10° NNE 21:02:51 11° NNE 21:02:51 11° NNE visible
05 Sep 5.9 22:09:31 10° NW 22:09:38 11° NW 22:09:38 11° NW visible
06 Sep 5.2 21:41:10 10° NNW 21:42:18 19° NNW 21:42:18 19° NNW visible
07 Sep 4.1 21:12:51 10° NNW 21:15:00 30° N 21:15:00 30° N visible
08 Sep 3.2 20:44:32 10° NNW 20:47:47 40° NNE 20:47:47 40° NNE visible
09 Sep 3.4 20:16:13 10° NNW 20:19:38 34° NE 20:20:38 29° E visible
09 Sep 5.8 21:54:29 10° WNW 21:54:49 11° W 21:54:49 11° W visible
10 Sep 3.7 19:47:55 10° NNW 19:51:11 29° NE 19:53:34 15° E visible
10 Sep 5.0 21:25:46 10° WNW 21:27:46 20° WSW 21:27:46 20° WSW visible
11 Sep 4.3 20:57:07 10° WNW 21:00:15 26° WSW 21:00:50 25° SW visible
